Погода в Вильнюсе

Поиск расширенной информации на нашем сайте:

Полезная информация:

Новости сайта



02.01.2020
Опубликован Долгосрочный прогноз погоды по городам России и ближнего зарубежья на январь 2020 года.
Карты: Прогноз на январь и февраль 2020 года, Сравнение прогнозируемой аномалии приземной температуры воздуха на январь 2020 года по разным моделям.




Погода в Вильнюсе - сегодня

Время (UTC), дата Ветер
(°,м/с) 
Видим.   Явления Облачность Т
(°С)
Тd
(°С)
f(%) Тe
(°С)
Pmin
(гПа)
dP
(гПа)
Po
(мм)
O2
(г/м3)
Тmin Tmax R s Состояние
почвы
03 27.11.21 060 (СВ) 2-5{06}  3000 м  слаб. дождь со снегом  10/10 120 м 
[Ns]
+0.2 +0 99 -1  993.8  -3.4  731  294           
06 27.11.21 040 (СВ) 3-5{06}  1600 м  слаб. дождь со снегом  10/10 100 м 
[Ns]
+0.2 -0.1 98 -2  991.8  -2.1  729  294  +0.1    равномерный
мокрый или
старый снег
100% 
09 27.11.21 050 (СВ) 2-3{06}  1800 м  слаб. дождь со снегом  10/10 100 м 
[Ns]
+0.3 +0.1 99 990.5  -1.2  729  293           
12 27.11.21 250 (З) 1-2{04}  1800 м  слаб. дождь со снегом  10/10 240 м 
[Ns]
+0.4 +0.1 98 +1  990.6  -0.1  729  293       
15 27.11.21 240 (ЮЗ) 1-2{02}  1200 м  слаб. дождь со снегом  10/10 60 м 
[Ns]
+0.2 +0 99 +1  992.2  1.5  730  294           
18 27.11.21 220 (ЮЗ) 3-5{05}  18000 м  слаб. дождь со снегом  10/10 100 м 
[Ns]
+0.3 +0 98 -1  994.3  2.1  731  294    +0.5   
21 27.11.21 220 (ЮЗ) 3-5{07}  3800 м  дымка{снег, дождь}  10/10 100 м 
[St]
+0.3 +0 98 -1  996.7  2.3  733  295           
00 28.11.21 220 (ЮЗ) 3-5{07}  12000 м  {снег, дождь}  10/10 120 м 
[St]
+0.4 -0.2 96 -1  997.7  734  295      0.0   
03 28.11.21 200 (Ю) 3-5{06}  10 км  в посл. час дождь со снегом  10/10 210 м 
[St]
+0.4 -0.2 96 -1  998.6  735  296           
06 28.11.21 200 (Ю) 4-5{05}  5000 м  в посл. час дождь со снегом  10/10 120 м 
[St]
+0.4 -0.1 96 -2  1000.3  1.6  736  296  +0.2    0.1  равномерный
мокрый или
старый снег
100% 
09 28.11.21 210 (ЮЗ) 2-4{07}  8000 м  дымка  10/10 210 м 
[St]
+0.7 -0.3 93 1001.2  0.9  736  296           
12 28.11.21 170 (Ю) 2-3{05}  11000 м    10/10 400 м 
[St]
+0.9 -0.8 88 1001.6  0.4  737  296         
15 28.11.21 040 (СВ) 1-2{05}  5000 м  дымка  10/10 450 м 
[St]
+0.3 -0.6 94 +1  1001.7  -0.1  737  297           
18 28.11.21 050 (СВ) 3-4{04}  4200 м  дымка  10/6 660 м средняя 
[Sc|Ac trans]
+0.6 -0.2 94 -1  1000.6  -1.1  736  296    +1     
21 28.11.21 050 (СВ) 2-4{05}  2800 м  дымка  10/10 180 м 
[St]
+0.7 +0 95 999.3  -1.2  735  295           
00 29.11.21 050 (СВ) 2-4{06}  4100 м  дымка{дождь}  10/10 120 м 
[St]
+0.9 +0.2 95 997.8  -1.5  734  295      0.0   
03 29.11.21 060 (СВ) 3-6{07}  3600 м  слаб. дождь со снегом  10/10 100 м 
[Ns]
+0.6 +0.3 98 -1  995.5  -2.3  732  294           
06 29.11.21 060 (СВ) 2-4{06}  10 км  слаб. дождь со снегом  10/10 150 м 
[Ns]
+0.7 +0.3 97 992.7  -2.7  730  293  +0.5    мокрый или
старый снег
50-90% 
09 29.11.21 030 (СВ) 2-4{06}  6000 м  слаб. дождь{снег}  10/10 100 м 
[Ns]
+0.8 +0.5 98 990.8  -1.9  729  293           
12 29.11.21 030 (СВ) 2-4{05}  6000 м  дождь со снегом  10/10 120 м 
[Ns]
+0.7 +0.4 98 987.7  -3  727  292       
15 29.11.21 310 (СЗ) 4-5{06}  11000 м  в посл. час дождь{снег}  10/10 100 м 
[Ns]
+0.1 -0.1 99 -2  986.7  -1  726  292           
18 29.11.21 310 (СЗ) 5-9{10}  14000 м  {снег, дождь}  10/10 300 м 
[St]
-0.8 -1.7 94 -4  985.9  -0.8  725  293    +0.9   
21 29.11.21 300 (СЗ) 6-11{11}  1500 м  слаб. снег  10/10 300 м 
[Ns]
-2.5 -3.7 91 -6  986.6  0.4  725  295           
00 30.11.21 300 (СЗ) 5-9{13}  3100 м  слаб. снег  10/10 300 м 
[Ns]
-2.5 -3.9 90 -6  986.7  -0.2  726  295       
03 30.11.21 300 (СЗ) 7-11{15}  1600 м  слаб. снег  10/10 300 м 
[Ns]
-1.4 -2.6 92 -6  988  1.3  727  295           
Время (UTC), дата Ветер
(°,м/с) 
Видим.   Явления Облачность Т
(°С)
Тd
(°С)
f(%) Тe
(°С)
Pmin
(гПа)
dP
(гПа)
Po
(мм)
O2
(г/м3)
Тmin Tmax R s Состояние
почвы

Для получения пояснительной информации подведите курсор к названию столбца.

ПОГОДА в Вильнюсе - архив

Всё, что Вы хотите узнать о погоде в Вильнюсе - удобно и подробно!

Выберите нужную дату (начиная с 1 января 2019* года) и нажмите кнопку "Найти".
Будут отображены архивные сводки погоды по пункту Вильнюс, начиная с указанной даты.


Отображать данные в формате CSV (для использования в таблицах Excel)


Внимание! Наш архив погоды предназначен исключительно для личного некоммерческого использования в познавательных целях. Если Вам необходимы официальные справки о состоянии погоды (для производственных, юридических, коммерческих и т.п. целей), обращайтесь в органы Росгидромета.

*Примечание: данная дата относится к архиву по метеостанциям СССР (Россия, СНГ, Балтия).
Архив по метеостанциям Зарубежной Европы и Азии (кроме Китая) хранится 10 дней, по другим регионам земного шара (Китай, Африка, Америка, Австралия, Океания) - 1 день.

Вильнюс - район местоположения метеостанции


Название, широта, долгота, высота метеостанции:
Вильнюс 54.6°ш. 25.1°д. 156 м над ур. моря [Литва]

Дополнительная информация

В oтличие oт бoльшинства пoгoдных сайтoв мы публикуем пoдрoбную метеoинфoрмацию в детальнoм прoфессиoнальнoм фoрмате.

Характеристики температуры и влажнoсти вoздуха измеряются на высoте 2 м в тени вдали oт зданий и деревьев.
Скoрoсть ветра измеряется на высoте 10 м (на урoвне рoста челoвека скoрoсть ветра ниже в 1.5-2 раза). Если метеoстанция нахoдится в гoрoде или в лесу, тo скoрoсть ветра занижена на 2-4 м/с пo сравнению с oткрытым местoм. Скoрoсть ветра над акватoриями крупных рек и oзёр, а также на вершинах хoлмoв на 2-5 м/с выше, чем в oбычных услoвиях.
Атмoсфернoе давление в разных тoчках местнoсти мoжет значительнo oтличаться oт давления на метеoстанции, в зависимoсти oт услoвий рельефа (при пoдъёме на 10 м давление пoнижается примернo на 1 мм рт.ст.).